Theta_e
336 336 336 336 336 335 333 332 332 330 329 329 329 329 329 329 329 330 329 328 326 326 327 327 325 324 327 330 329 329 329 329 328 328 328 327 327 328 329 329 329 329 330 331 331 331 331 331 332 332 331 330 330 330 330 329 329 330 329 329 329 329 328
336 336 336 336 336 335 332 331 332 331 330 329 328 327 327 327 328 329 329 328 327 326 327 327 326 324 326 330 330 330 330 329 329 329 328 327 326 327 328 328 329 329 329 331 332 331 330 330 331 332 331 331 330 329 329 329 330 330 329 328 328 329 329
335 335 335 336 336 336 333 332 333 332 331 330 328 326 325 326 328 329 329 328 327 327 328 327 327 326 327 329 330 330 329 329 329 329 329 327 327 327 327 328 329 328 329 332 332 332 331 331 331 331 332 331 331 330 329 329 329 330 330 328 327 328 328
334 335 335 335 336 337 336 335 334 332 332 331 328 326 325 326 327 328 329 329 330 329 330 330 329 328 328 329 330 330 329 328 328 329 328 327 327 327 327 327 328 327 329 332 332 332 333 332 331 330 331 331 330 331 330 329 329 330 330 328 327 328 328
335 335 335 334 336 336 335 336 336 334 332 330 329 328 327 326 327 326 326 328 330 331 331 331 330 330 329 328 330 331 330 329 328 328 327 326 326 327 328 327 327 328 329 332 332 332 333 332 331 330 331 331 330 330 331 329 329 330 331 329 328 328 328
334 335 335 334 333 334 334 335 337 335 334 332 330 329 329 329 329 328 326 325 326 328 330 331 330 331 330 328 329 330 329 328 327 327 327 328 328 329 329 327 327 328 329 331 332 331 331 331 331 331 331 330 329 330 331 330 329 330 330 329 329 329 329
331 332 334 334 333 333 333 334 334 334 334 335 334 332 331 332 332 331 329 326 325 325 327 329 330 331 330 329 329 329 328 327 328 328 328 329 329 329 328 326 327 328 329 330 331 331 332 332 331 331 331 330 330 330 330 330 329 329 330 330 329 329 329
329 330 332 333 334 333 333 333 333 333 333 334 335 334 332 332 333 333 330 328 327 325 326 328 330 331 329 328 329 330 329 328 328 329 328 329 329 329 328 326 326 327 328 329 330 331 332 332 332 331 330 331 330 330 330 329 329 329 329 329 329 329 329
327 328 330 332 333 333 333 333 333 333 333 332 332 331 330 331 333 333 332 330 328 325 325 326 328 330 330 329 327 328 330 329 328 328 329 329 328 328 328 328 327 326 327 330 331 331 331 331 332 330 330 331 330 329 330 330 329 329 329 329 329 329 329
325 327 328 329 331 332 332 333 333 333 332 331 330 329 329 329 330 332 332 331 329 326 325 325 326 328 329 329 328 327 330 330 328 328 330 329 328 328 328 328 327 325 327 330 330 330 329 330 331 330 329 331 330 329 329 330 329 329 329 329 329 330 329
322 324 326 328 329 330 331 332 332 332 332 331 330 330 330 329 329 331 332 331 330 329 327 325 326 327 328 329 328 328 329 330 328 328 330 329 329 329 329 328 327 326 327 329 329 329 329 329 330 330 329 330 330 329 329 329 329 328 329 329 329 329 329
321 323 325 327 328 329 329 330 331 331 331 331 330 329 329 329 328 330 331 330 330 330 329 327 327 328 328 328 329 329 330 330 330 329 329 329 329 330 329 328 328 327 328 329 329 329 330 329 329 329 330 330 330 329 329 329 328 328 329 329 329 329 329
321 322 324 325 326 327 328 329 331 331 331 331 330 329 328 329 329 329 330 330 329 330 330 328 327 328 328 328 329 330 330 330 330 330 330 330 329 329 329 328 329 329 328 329 330 329 328 329 328 328 331 330 329 329 329 329 328 328 328 329 329 328 329
320 321 322 323 324 326 327 328 330 331 331 330 330 329 328 328 329 329 328 328 328 329 331 330 328 329 330 329 329 330 330 330 330 330 331 331 329 329 329 328 328 328 327 328 330 328 326 327 327 328 330 330 329 329 329 329 329 328 328 329 329 328 328
320 320 321 321 322 324 326 327 328 329 330 330 330 329 329 328 328 328 327 327 327 327 330 332 330 330 331 330 330 330 330 331 330 330 331 330 328 328 329 327 326 328 328 329 331 329 325 326 327 328 330 330 329 329 330 330 330 328 327 329 329 327 328
320 320 320 320 321 322 323 324 326 327 329 330 330 329 329 329 328 328 327 327 326 326 329 331 331 330 330 330 331 330 330 331 330 330 329 328 328 328 328 327 326 328 329 329 330 328 326 326 327 328 329 329 329 329 330 330 330 328 327 329 329 327 328
319 319 319 320 320 320 321 322 324 326 327 328 329 330 330 330 329 329 328 328 327 328 329 331 332 331 330 330 330 330 331 331 331 330 329 328 329 328 327 326 326 328 328 328 328 327 326 326 326 326 327 329 329 329 329 330 329 328 328 328 328 327 328
318 318 318 319 319 319 320 321 323 325 326 327 328 328 329 330 330 330 329 328 328 329 330 331 332 331 331 330 330 330 331 331 331 331 330 329 329 328 328 327 327 328 329 330 330 327 326 327 326 326 326 327 329 329 330 329 329 329 328 327 327 327 327
316 316 316 317 318 319 319 321 323 324 326 326 327 327 327 329 330 330 330 329 329 330 330 330 331 331 330 331 331 330 331 331 332 331 330 329 329 329 329 328 329 328 329 331 331 328 327 327 326 327 327 328 329 329 329 330 329 328 327 327 327 327 326
315 315 315 316 317 318 319 320 322 324 325 326 326 326 326 327 328 329 330 330 330 330 330 329 330 330 330 331 331 331 331 331 331 330 330 330 329 329 328 329 329 328 328 329 329 327 327 326 326 327 328 328 329 328 329 330 329 328 328 327 327 326 326
314 315 315 315 316 317 319 320 321 323 324 325 325 326 326 326 327 328 328 329 329 330 330 329 329 329 330 330 331 330 330 330 330 330 329 329 329 329 329 329 328 328 330 330 328 327 326 326 326 327 328 328 328 328 328 329 328 328 328 327 326 326 325
314 314 314 315 315 316 317 319 320 321 322 323 324 325 325 325 326 326 327 328 329 329 329 329 329 329 330 330 330 329 329 330 331 330 328 328 329 329 329 328 328 329 331 330 328 327 326 325 326 327 326 326 327 328 328 328 328 328 328 327 327 326 325
314 314 314 314 314 314 315 316 318 319 320 321 322 323 324 324 324 325 326 327 328 328 328 328 328 329 329 329 329 330 330 330 330 329 328 328 329 329 328 327 329 330 328 327 327 327 326 326 326 326 324 324 325 327 328 328 328 327 328 328 328 327 325
313 313 313 313 313 313 314 315 315 316 317 318 319 320 321 322 323 324 325 326 327 327 328 328 328 328 329 328 329 329 329 330 329 329 329 328 328 329 328 328 330 329 326 326 327 326 325 326 325 325 324 322 323 324 325 326 327 327 327 327 327 326 325
312 312 312 312 312 312 313 314 314 315 316 316 316 317 318 319 320 321 322 324 324 326 327 327 327 327 327 328 328 329 329 329 329 328 327 327 328 329 329 329 330 328 326 327 327 325 325 325 326 326 324 322 322 324 324 325 326 327 327 326 326 326 326
311 311 311 311 311 311 312 313 314 315 315 315 315 316 316 317 318 319 321 322 323 324 324 325 326 327 327 327 328 328 328 329 328 327 327 327 328 330 329 329 329 327 326 327 325 325 325 325 325 325 323 322 323 324 325 325 327 327 327 326 326 326 326
309 310 310 310 310 310 311 312 313 313 314 314 315 315 316 316 317 318 319 320 321 322 323 324 325 326 326 327 327 327 328 329 328 327 328 328 329 329 329 328 326 325 326 326 325 325 325 324 324 324 323 323 324 325 325 326 327 327 326 326 326 325 325
308 309 309 308 308 309 310 311 312 313 313 314 314 314 315 315 316 316 317 317 318 319 320 322 324 325 326 326 326 327 327 328 328 327 328 328 328 328 328 328 326 326 325 325 324 324 324 324 324 324 324 325 325 325 325 325 325 326 326 326 325 324 324
307 307 307 307 307 307 308 309 310 311 312 313 313 313 313 314 314 315 315 316 316 317 318 319 321 324 325 326 326 326 326 328 328 327 328 329 328 328 328 328 327 327 326 324 324 324 323 323 321 321 323 325 325 325 325 325 324 325 326 326 324 323 323
307 307 307 307 306 306 306 307 308 310 311 312 312 312 312 312 313 314 314 314 315 315 316 317 318 320 323 324 326 325 325 326 328 328 328 329 328 327 327 327 327 327 325 324 323 322 320 319 319 321 323 323 323 324 325 325 325 325 326 326 325 324 324
306 306 306 306 306 306 306 306 306 307 309 310 311 311 311 311 312 313 313 313 313 314 314 315 316 317 319 322 324 325 325 325 327 328 328 328 327 326 326 326 326 325 323 321 319 317 317 319 321 323 323 321 321 324 325 325 325 325 326 326 325 324 324
306 306 306 306 306 306 306 305 305 305 307 308 309 310 310 310 311 311 312 313 313 314 314 314 315 316 317 318 320 322 323 323 324 325 326 326 326 327 326 326 325 322 320 318 317 318 320 322 323 323 322 322 323 325 325 325 325 325 325 324 324 323 323
305 305 305 305 305 305 305 305 305 304 304 305 307 308 309 309 310 310 311 311 312 313 314 315 315 315 316 317 317 319 321 322 323 325 325 324 324 326 326 324 322 319 318 317 318 321 323 324 324 323 323 323 324 324 324 324 324 324 323 323 323 322 321
304 304 304 305 305 305 305 305 304 304 304 304 304 306 307 307 308 309 309 310 310 311 312 313 314 315 316 316 316 318 320 321 322 324 324 322 322 324 324 322 319 318 318 319 320 322 324 324 323 322 322 322 322 322 322 322 322 320 319 320 319 317 317
303 303 304 304 304 304 304 304 304 304 303 303 303 304 304 305 306 307 308 308 309 309 310 311 312 313 315 315 315 316 318 319 319 320 321 321 322 322 321 320 319 319 320 320 321 322 323 322 321 320 320 319 319 319 318 317 317 316 315 315 315 314 314
302 302 302 303 303 303 302 302 302 302 302 302 302 302 302 303 304 305 306 306 307 308 309 310 310 312 313 314 315 316 316 317 317 317 318 319 320 320 320 319 320 320 320 321 321 321 321 320 319 318 317 317 316 316 316 315 315 315 314 314 314 314 315
301 301 301 301 302 301 301 301 301 301 301 301 301 301 301 301 302 303 303 304 305 306 307 308 309 310 311 312 313 314 314 315 315 315 316 317 317 318 319 319 320 320 320 320 320 320 319 318 317 317 316 316 315 316 316 316 315 315 315 315 315 315 315
Wind_Speed
8 9 8 8 8 9 9 8 9 9 8 9 8 9 11 13 15 16 16 16 15 15 17 19 20 21 23 23 20 18 17 17 19 20 19 19 19 18 18 21 20 17 14 14 15 15 15 16 16 15 15 13 13 13 12 14 14 13 13 12 11 10 10
8 9 9 8 8 10 9 7 8 9 9 9 9 10 11 13 14 14 15 16 16 16 17 19 20 20 23 24 23 21 19 19 21 21 21 21 21 19 19 21 21 21 20 18 16 15 15 13 14 15 15 14 15 15 14 15 15 13 13 13 12 11 11
10 10 10 10 9 10 11 9 9 11 10 9 10 11 12 13 14 14 15 16 16 17 17 19 20 20 22 23 24 22 20 20 22 22 23 23 22 21 20 19 20 22 24 22 19 17 14 12 12 15 17 17 16 16 16 16 15 14 14 14 12 11 13
11 12 12 11 9 10 11 11 11 13 11 11 11 11 11 12 13 14 15 15 16 17 18 20 21 21 21 21 22 22 21 22 23 23 24 23 23 23 22 21 20 22 24 23 20 17 14 13 13 13 16 17 16 16 16 17 17 16 15 15 14 13 13
10 12 13 12 11 12 14 14 13 14 14 12 12 11 11 12 14 15 15 16 16 18 19 20 21 21 21 20 21 21 22 23 22 22 23 23 24 24 24 24 23 23 25 22 20 17 15 14 13 12 14 14 14 15 15 16 18 17 16 16 15 15 15
9 11 13 14 15 15 15 15 14 14 14 12 11 12 11 12 14 15 16 17 18 19 19 19 21 21 21 21 21 21 21 22 22 22 23 24 25 25 26 26 25 26 25 21 20 18 15 14 13 12 12 13 13 14 15 16 18 18 17 17 16 15 15
9 11 12 13 16 17 16 16 17 16 16 13 12 13 12 12 16 16 16 17 17 18 19 19 20 21 22 21 21 21 21 21 21 23 24 25 25 25 26 26 25 26 26 23 21 17 14 14 14 13 11 11 12 13 15 16 17 18 18 17 16 15 16
9 11 11 11 14 16 17 18 18 17 17 15 14 14 14 14 18 18 17 17 17 18 19 20 19 19 21 22 21 21 21 21 21 22 24 24 24 24 25 26 26 26 26 24 20 17 17 14 13 16 14 12 13 14 14 16 17 18 18 17 16 17 17
10 10 10 10 13 15 16 18 18 17 17 17 16 17 17 17 18 18 17 18 18 19 20 21 20 20 21 21 21 21 21 22 22 22 23 24 24 24 25 26 26 26 25 24 19 18 20 17 15 18 18 14 15 16 15 16 17 18 18 17 17 17 17
10 11 11 11 12 13 14 17 18 18 18 18 19 19 19 19 19 19 19 19 18 20 22 21 22 23 22 22 22 21 22 23 23 22 23 24 24 24 25 26 27 27 26 24 22 21 23 20 17 19 20 17 16 17 17 17 18 19 19 19 18 18 18
11 12 12 12 13 12 13 14 16 18 19 20 20 21 20 20 20 20 20 19 17 18 20 21 21 23 24 25 24 22 22 24 24 24 24 25 24 24 25 26 27 28 27 25 23 23 23 22 20 20 21 20 18 17 17 16 16 18 19 19 18 18 19
12 12 13 14 14 14 13 13 14 16 18 21 21 21 20 20 21 21 20 19 18 17 18 19 21 22 24 26 25 24 24 24 25 25 25 26 25 24 25 26 27 27 26 26 25 25 24 23 24 22 19 19 20 18 18 16 15 17 18 19 20 18 18
13 13 13 14 15 15 14 14 15 15 17 20 20 19 19 19 21 22 20 20 20 18 17 18 19 21 23 25 25 26 26 25 25 26 26 26 25 24 24 25 26 26 25 25 26 27 25 24 26 25 21 21 22 20 20 18 16 16 17 19 21 20 19
16 16 15 14 14 15 16 15 16 17 17 18 19 18 19 19 19 19 20 20 22 20 18 18 19 19 21 23 25 26 26 26 26 27 26 26 26 25 25 26 26 27 25 24 26 27 27 26 27 27 23 22 23 21 21 20 17 17 18 17 18 20 20
18 18 18 17 15 14 15 15 15 17 18 18 18 17 18 18 18 19 21 22 24 23 22 20 20 20 22 23 24 25 26 26 26 27 27 28 27 25 25 27 27 26 24 24 25 26 27 28 28 29 25 23 24 22 20 19 18 18 19 17 17 19 19
16 17 18 19 18 16 15 14 14 16 18 18 18 18 18 19 19 21 23 24 24 24 25 23 21 20 21 23 25 25 25 26 27 29 30 28 27 25 26 28 27 26 25 25 26 27 28 29 29 29 27 25 25 22 20 20 18 18 22 21 19 19 19
14 15 16 17 18 18 16 14 12 13 15 17 18 18 19 20 21 22 24 25 25 25 26 24 20 19 20 22 24 25 25 26 27 29 30 28 27 27 27 27 27 27 26 25 27 28 29 30 29 29 28 27 25 23 22 22 19 20 23 22 21 21 20
14 14 14 15 16 17 16 14 13 13 14 17 18 18 18 20 22 23 24 26 27 27 29 26 21 20 20 21 23 24 25 26 26 27 29 29 29 29 28 26 26 26 25 25 27 29 30 29 28 28 28 27 25 24 24 22 21 21 22 22 21 20 20
15 15 16 16 16 16 16 13 12 12 13 16 17 18 19 19 20 22 23 26 27 28 29 26 22 21 23 23 23 24 25 26 26 27 28 28 28 30 30 27 25 25 26 27 28 28 29 29 28 27 27 27 27 27 26 22 21 22 22 23 21 19 19
15 16 16 17 16 16 16 14 13 12 12 14 16 17 18 19 20 21 22 24 25 27 27 25 22 23 25 26 25 24 25 26 26 26 26 27 28 30 29 28 27 26 27 28 28 27 28 29 28 27 27 26 26 27 27 25 23 20 20 23 23 20 19
15 16 16 17 16 15 15 15 14 14 14 15 16 17 18 19 20 21 22 24 25 26 25 23 22 24 27 27 27 26 27 26 26 26 27 28 29 29 29 29 28 26 26 27 26 27 28 28 28 28 28 25 21 21 24 27 26 22 19 22 24 22 19
16 17 16 17 16 16 15 14 14 16 17 18 19 20 20 20 19 19 20 22 24 26 25 22 22 25 27 28 28 28 27 26 26 28 29 30 29 29 29 29 27 25 25 26 26 27 26 25 26 27 27 25 21 18 19 22 25 25 21 21 23 23 19
17 17 17 17 17 17 17 16 15 15 17 20 21 22 23 23 23 22 21 19 21 23 25 23 23 25 27 28 28 28 26 24 26 29 31 31 30 29 29 29 27 25 25 25 25 25 23 21 23 24 24 24 23 21 19 19 20 22 22 21 22 24 22
19 18 18 18 17 17 18 19 19 18 16 17 19 20 22 24 25 26 25 23 21 20 20 21 24 27 27 27 28 28 26 24 25 27 29 31 29 28 28 28 26 25 25 25 25 25 22 21 22 22 22 22 23 22 21 19 18 19 22 20 20 22 23
19 19 18 18 18 18 18 20 22 21 18 17 16 15 17 19 21 23 25 27 26 23 21 22 25 26 26 27 28 28 28 28 27 27 29 30 30 30 30 27 24 23 25 26 26 25 22 22 23 22 21 20 21 22 22 20 19 19 21 19 18 21 24
19 20 20 19 18 18 19 22 24 23 21 20 19 17 15 15 15 17 19 23 26 27 26 25 25 25 25 26 27 28 30 29 28 28 28 30 32 32 29 26 24 24 24 25 25 24 22 22 23 22 21 20 22 22 20 20 20 20 20 20 19 21 23
19 20 20 20 19 20 22 24 25 25 25 24 23 22 20 19 17 17 16 16 19 23 26 27 27 25 25 26 26 27 29 29 28 28 29 30 32 30 26 25 26 26 25 25 25 24 22 22 21 21 21 20 22 22 20 21 22 21 20 20 20 19 18
19 20 20 20 20 21 23 24 25 26 27 26 26 25 24 23 22 21 20 20 19 18 20 25 27 27 26 26 25 26 27 29 29 27 29 31 30 25 23 24 25 26 25 25 24 23 22 21 19 19 19 18 20 21 21 22 23 23 22 21 20 19 16
19 20 20 20 21 21 22 24 24 25 26 25 25 26 26 27 27 25 24 24 23 22 18 18 22 26 27 27 26 24 24 27 27 25 27 29 26 22 22 22 21 23 24 24 23 22 20 19 18 17 17 17 18 20 20 20 20 21 22 21 18 18 17
18 19 19 19 21 21 21 21 22 24 24 23 22 23 25 27 28 28 27 25 24 25 24 22 18 19 23 25 28 26 23 25 27 25 25 27 24 21 21 21 20 20 21 21 20 18 17 16 16 16 17 18 18 18 18 18 18 19 20 17 14 15 16
18 18 19 19 19 20 19 19 20 21 22 21 20 21 22 23 25 27 27 25 24 23 23 24 23 20 17 17 21 24 23 25 27 24 22 22 23 23 23 24 22 19 19 18 15 14 14 14 14 16 18 18 17 16 16 16 17 17 18 16 13 15 17
17 17 18 19 19 18 18 18 18 18 19 20 20 20 20 21 23 24 25 24 23 22 22 21 21 21 18 13 12 15 20 24 24 21 22 21 22 25 25 25 23 18 15 15 14 14 14 13 14 16 17 15 13 13 14 15 15 16 17 16 15 16 18
18 18 18 19 19 18 18 18 18 17 17 18 19 18 19 20 21 22 23 25 25 25 25 24 21 20 16 9 5 9 15 18 18 19 20 19 20 24 25 23 21 18 15 14 14 14 15 15 14 14 12 11 10 12 14 15 16 17 17 18 18 17 17
18 18 19 19 19 19 18 18 18 17 16 17 18 18 18 19 21 21 22 23 25 25 25 24 22 21 19 13 5 0 2 3 5 11 16 17 18 21 22 20 19 18 16 14 14 14 15 15 13 10 8 9 10 11 12 13 15 16 16 17 17 16 16
19 18 19 19 19 20 19 18 18 17 15 16 17 19 20 20 21 21 22 22 23 24 24 24 22 20 18 18 16 13 12 10 7 3 8 12 15 18 19 19 19 17 16 14 13 13 14 14 13 11 10 8 7 8 10 13 15 16 17 18 19 19 20
21 20 20 19 19 20 21 19 18 18 18 17 17 18 19 21 21 21 22 22 22 22 21 22 22 20 16 14 14 14 14 11 10 8 3 6 12 15 16 16 16 16 16 15 13 13 13 13 13 13 12 10 9 10 13 16 18 18 18 18 19 19 19
21 22 21 21 20 21 22 22 20 19 19 19 19 19 19 20 21 21 22 22 22 21 20 20 21 21 18 14 12 11 11 10 11 11 7 2 6 10 12 14 15 15 15 16 15 15 15 16 16 15 13 11 10 11 13 16 17 18 18 17 16 16 16
Wind_Direction
298 295 291 284 277 282 282 269 265 267 270 273 270 266 259 251 248 244 242 246 248 247 245 242 246 251 250 246 244 243 239 235 234 234 237 242 245 246 235 228 233 236 233 232 219 210 209 202 199 205 209 213 211 212 211 201 199 201 199 194 188 197 196
298 294 290 284 274 278 284 275 269 269 263 262 265 267 267 259 251 244 237 238 243 244 243 243 245 247 245 244 245 245 244 243 239 236 237 239 244 251 243 233 236 238 237 239 233 225 219 204 195 197 199 203 208 212 211 202 196 195 200 198 185 193 195
296 293 290 284 274 276 283 280 272 272 269 263 265 268 271 265 252 244 237 234 236 237 238 240 241 243 241 241 245 247 247 245 240 237 237 238 242 248 249 243 241 240 239 241 237 227 224 216 205 199 198 200 204 208 209 202 196 195 200 200 187 192 198
295 290 289 288 282 274 274 273 268 271 273 265 264 266 266 262 251 244 239 234 234 233 233 235 237 240 241 240 244 244 242 241 240 238 237 236 238 242 245 243 240 239 238 239 235 225 222 222 213 201 198 205 208 205 204 200 196 196 199 200 189 189 199
292 288 284 282 278 270 267 265 261 265 269 263 261 262 261 257 250 246 240 233 230 232 231 232 234 238 240 241 242 239 238 238 236 234 233 234 237 239 240 238 236 237 238 239 235 225 220 220 214 203 199 206 208 200 199 198 194 195 199 200 192 187 196
270 279 281 276 268 264 265 263 259 261 266 262 259 264 267 260 252 248 245 240 234 231 230 230 232 234 236 241 241 240 239 237 233 230 230 232 237 239 239 237 234 234 236 236 232 224 220 219 213 209 203 202 203 197 199 198 193 193 196 199 195 187 194
264 264 273 277 271 267 265 264 262 260 259 257 256 263 267 264 258 250 244 244 242 236 232 229 229 231 234 238 240 241 240 236 232 230 231 234 237 238 237 236 235 235 235 233 228 223 218 216 212 210 205 199 199 198 196 192 191 193 193 195 194 189 193
292 277 273 277 277 277 273 269 268 264 258 255 254 257 257 257 259 255 246 242 240 239 236 231 230 231 234 235 236 239 238 234 232 232 233 234 237 237 235 236 237 236 235 233 230 225 217 213 213 210 203 195 194 195 194 190 193 197 191 189 191 190 191
317 305 293 280 276 280 281 278 277 272 267 264 262 260 258 259 262 260 253 246 240 240 240 237 233 233 235 235 234 235 234 233 232 233 232 232 234 233 231 235 236 235 234 231 227 227 220 213 214 210 202 201 199 194 193 194 196 198 192 187 189 192 192
319 312 305 293 282 279 282 284 285 283 278 271 265 263 263 264 265 262 258 253 246 241 241 241 238 237 237 236 235 235 234 234 233 232 232 231 231 230 230 233 234 233 234 228 221 224 222 214 215 214 205 206 209 200 196 198 199 198 193 189 189 190 191
315 309 306 304 299 291 285 286 289 290 286 278 267 262 261 259 260 263 262 258 252 245 241 239 239 240 241 240 240 238 235 235 234 233 235 235 232 230 229 231 233 232 232 229 223 224 223 216 215 218 211 208 213 211 207 205 202 200 195 192 192 190 189
316 313 312 311 306 301 296 289 289 289 287 285 275 264 261 257 254 258 262 259 253 247 242 237 235 237 240 242 241 237 233 232 233 234 235 235 231 228 229 228 229 228 226 227 226 222 223 220 214 215 215 214 213 213 216 214 207 204 198 194 195 193 187
324 322 319 313 304 303 301 293 292 289 283 285 281 269 265 261 254 255 262 263 256 248 241 239 236 234 238 241 240 238 235 233 233 233 232 232 229 227 229 227 226 225 224 226 226 223 221 221 218 213 214 218 214 212 218 218 212 209 204 200 201 195 188
327 324 319 312 306 305 303 295 293 291 285 285 284 275 268 263 255 254 260 262 259 255 246 241 238 234 235 240 239 238 236 233 233 232 229 232 232 230 231 229 228 230 228 224 225 223 219 220 222 217 214 216 215 217 221 218 215 211 201 197 201 198 194
326 323 321 318 313 308 302 297 293 292 290 287 284 278 270 263 256 254 255 254 255 257 252 243 238 234 234 237 238 237 235 233 234 232 230 232 232 229 230 230 229 230 224 219 222 224 220 219 221 219 215 214 216 218 218 216 218 212 199 192 194 197 197
322 319 317 316 314 309 302 297 292 290 291 290 286 282 277 270 261 255 254 253 253 256 255 248 244 241 236 236 238 238 237 235 234 233 233 233 230 228 230 231 230 229 224 223 225 223 219 218 219 219 215 214 218 220 217 218 219 207 196 192 188 189 192
319 313 310 309 310 311 310 306 297 287 286 289 288 284 279 275 270 264 258 257 256 254 253 250 246 245 241 239 240 241 240 238 236 235 234 235 232 229 230 231 232 231 227 226 226 220 217 218 219 219 217 215 220 224 220 217 213 203 196 195 193 191 193
330 324 318 313 311 313 315 317 317 307 293 289 287 283 279 274 273 270 264 260 257 252 251 247 244 249 250 246 243 241 240 239 237 233 232 236 236 232 231 232 234 234 225 220 221 219 217 218 218 219 219 218 220 223 219 213 209 208 202 195 195 197 199
344 342 337 332 325 320 318 314 312 307 296 292 289 283 280 276 274 271 265 262 258 253 252 247 242 248 251 248 245 243 241 238 237 236 234 235 235 233 232 232 233 233 223 218 222 221 218 218 218 216 215 216 220 220 217 213 210 209 202 193 192 196 199
349 348 346 343 336 327 321 311 300 293 286 289 288 283 282 281 278 274 269 266 264 259 259 255 245 244 247 247 247 248 246 241 239 239 236 233 234 235 235 233 234 232 222 219 223 222 216 217 218 214 211 217 225 221 215 212 208 205 199 193 194 194 194
352 351 350 348 343 334 326 314 303 294 287 286 283 279 282 282 280 279 273 270 269 266 267 267 257 249 248 249 248 249 250 247 241 238 236 236 237 236 234 233 233 227 217 217 221 219 215 216 217 214 213 220 231 228 219 212 207 206 201 194 193 192 192
355 354 355 355 352 348 342 330 314 298 288 284 280 277 278 279 282 286 281 277 277 273 271 272 266 258 252 251 251 250 251 249 244 241 241 240 237 233 231 231 228 221 216 217 218 217 217 217 217 215 216 223 231 235 230 217 208 207 204 196 193 190 190
356 356 357 358 357 356 356 351 338 316 293 282 277 275 276 276 276 279 279 281 284 282 278 275 270 265 259 252 249 248 250 252 248 245 245 242 235 229 228 228 223 218 220 221 217 216 220 219 217 216 217 225 231 235 237 231 220 213 206 200 196 191 189
357 357 358 357 357 358 358 358 355 344 321 301 289 281 277 275 274 274 273 274 276 280 282 275 266 265 265 260 252 245 244 246 244 244 245 241 233 227 225 225 220 214 217 219 215 214 219 220 219 218 218 222 227 230 233 235 230 220 213 207 199 196 198
359 360 359 358 359 359 0 3 4 2 353 341 328 311 297 289 284 281 277 274 272 271 272 270 266 265 266 264 259 250 244 240 238 241 243 236 229 226 223 221 218 214 213 214 213 214 217 216 215 215 217 219 221 225 228 228 227 222 216 212 206 205 209
1 2 1 1 359 359 3 8 10 11 10 6 1 354 342 328 315 303 290 281 276 273 271 269 267 267 266 265 262 255 249 245 241 238 233 225 224 225 221 214 214 216 214 211 211 214 214 211 211 212 216 219 218 221 224 225 228 226 217 213 214 215 219
3 2 2 3 2 2 7 11 11 11 13 14 13 10 4 358 350 339 324 306 290 280 275 271 268 266 264 264 263 257 251 247 241 230 219 218 223 223 215 213 216 218 214 210 210 213 211 210 212 212 214 217 217 220 223 223 228 232 226 217 216 219 223
4 4 3 4 5 6 11 13 12 10 9 11 14 13 9 5 360 352 344 336 325 307 286 271 265 264 263 259 257 257 252 242 235 226 215 219 226 220 211 213 217 216 213 209 208 210 209 207 206 204 209 214 216 220 224 224 225 230 230 224 219 220 219
7 6 6 7 7 6 9 13 15 13 7 5 10 14 13 10 6 358 351 346 344 341 326 292 267 258 257 256 255 256 251 238 228 220 216 221 224 219 214 214 213 212 210 206 204 203 202 201 199 200 205 211 215 220 225 226 227 228 232 232 223 216 212
8 8 7 8 7 5 6 9 13 15 10 5 7 15 17 15 11 6 360 354 350 348 344 335 313 277 256 250 248 249 246 237 227 218 218 222 220 213 211 207 203 201 198 196 196 195 197 200 199 200 206 212 218 223 224 225 225 223 228 233 221 207 208
7 7 6 6 6 5 4 4 6 12 15 11 8 13 18 21 18 14 9 2 356 352 348 345 340 323 296 267 253 248 240 235 230 215 203 206 209 209 208 202 195 189 184 182 186 191 195 194 191 198 210 218 221 222 219 219 218 216 218 221 215 209 214
6 6 6 5 4 3 3 3 3 7 14 17 16 14 17 23 27 24 19 12 9 9 6 360 353 342 328 308 275 248 227 222 220 199 180 183 194 197 196 191 185 179 175 175 180 187 187 183 189 203 213 219 220 219 217 215 212 210 211 210 205 204 208
9 9 8 6 5 4 4 4 3 4 10 16 20 17 12 16 22 25 24 20 16 17 18 15 12 5 355 339 279 233 214 205 200 191 188 191 189 186 183 179 174 172 173 175 179 183 183 185 195 207 212 214 217 219 219 215 211 208 203 200 200 199 198
10 11 11 10 10 9 8 7 5 6 7 11 18 21 19 18 18 18 22 24 22 20 18 17 19 22 23 24 27 313 197 177 186 203 209 202 187 183 183 178 171 169 170 173 177 181 185 190 194 194 196 206 215 222 220 211 208 204 193 187 188 184 178
12 12 11 11 11 10 10 9 7 7 7 7 12 19 24 26 25 23 22 24 27 25 19 15 18 25 31 31 33 43 48 42 29 315 240 213 189 181 183 180 174 169 167 171 177 180 185 190 187 183 185 188 191 198 193 182 181 179 171 169 171 168 165
17 16 14 14 14 12 11 10 10 10 9 8 8 13 20 25 29 32 29 27 30 30 22 15 13 17 23 22 23 37 48 47 45 39 350 223 193 181 177 174 171 169 167 169 176 180 184 186 182 177 172 166 168 179 177 170 170 170 168 168 171 169 168
22 22 20 18 18 16 15 14 14 13 13 13 13 14 17 21 26 31 33 32 32 31 28 23 16 14 20 24 24 32 39 41 48 53 47 75 170 172 168 164 168 174 174 171 173 179 180 178 176 172 168 169 177 185 185 179 175 173 172 174 176 176 177